Wind_Speed
4 4 5 4 4 2 3 2 5 6 6 6 5 6 7 7 10 8 8 10 12 12 12 11 12 13 13 12 10 10 8 9 10 17 13 19 14 18 18 39 22 12 12
7 9 9 10 7 6 2 4 4 4 5 6 5 7 8 8 10 8 10 12 15 15 16 14 13 14 20 15 15 11 6 9 8 14 17 14 14 19 18 9 10 14 18
3 5 4 3 5 4 6 6 6 6 5 5 6 8 9 10 10 17 11 19 7 11 16 13 10 13 11 10 12 16 6 7 11 16 18 19 19 16 24 19 14 23 24
2 4 5 6 7 8 8 9 8 7 7 7 7 8 10 10 11 11 16 19 21 20 14 8 17 14 11 11 9 10 4 10 11 15 16 18 18 18 17 19 18 19 28
4 4 6 7 7 7 7 9 10 8 8 7 8 8 10 11 10 12 13 16 17 18 19 20 11 13 11 11 10 7 10 10 11 14 17 17 21 19 11 16 20 21 19
2 3 5 6 5 7 9 9 9 9 9 8 7 9 9 13 13 13 12 13 15 14 14 14 12 13 12 11 10 9 10 11 13 15 16 18 17 17 12 14 19 22 22
1 3 5 4 5 7 8 9 9 10 8 8 8 11 11 13 14 13 13 13 13 13 13 12 12 12 13 11 10 9 11 14 16 18 18 16 17 16 14 15 14 15 16
4 5 6 7 7 7 7 7 8 7 7 8 8 10 11 12 13 14 14 15 14 13 13 12 12 12 13 14 15 14 14 15 16 17 18 18 18 19 19 18 16 15 16
7 8 9 8 8 9 8 8 8 7 8 10 10 12 13 15 15 15 15 15 15 16 14 13 12 13 14 14 16 16 16 18 18 19 21 22 22 23 23 24 23 22 21
9 9 8 9 9 9 9 9 8 8 9 11 13 14 15 17 18 19 19 18 16 17 17 17 17 16 16 16 18 19 20 22 22 23 22 21 22 22 21 22 23 24 24
10 10 9 9 9 9 9 9 10 10 11 12 13 15 17 18 20 21 20 20 20 18 20 19 18 19 19 20 21 23 24 25 25 25 25 23 23 23 25 24 24 23 24
12 13 10 8 8 8 8 10 12 12 13 14 14 17 17 19 20 20 19 19 19 20 20 21 21 21 22 22 24 25 26 27 27 27 27 27 26 24 26 23 26 28 29
4 6 6 7 8 9 10 12 13 13 13 14 14 15 17 18 20 19 20 21 21 22 21 21 21 22 24 25 26 26 27 28 28 29 30 30 31 30 32 33 34 36 38
7 6 7 9 11 10 11 13 14 14 13 13 14 15 16 18 17 18 19 21 21 22 23 23 23 24 24 24 25 26 27 28 29 30 31 33 36 38 39 41 44 46 48
10 11 12 13 13 12 13 15 16 15 14 14 16 16 17 17 16 18 19 21 23 24 25 27 27 26 26 27 28 29 32 32 33 35 37 38 41 44 46 48 50 53 54
12 13 13 15 17 16 15 16 17 16 16 16 18 17 18 19 22 23 24 24 25 27 28 29 30 30 30 30 31 32 31 34 37 39 41 43 45 47 48 52 55 58 60
13 14 14 15 17 19 17 18 19 19 17 17 19 19 21 22 23 25 26 27 28 30 32 32 32 31 31 32 34 36 36 38 40 43 44 46 49 51 55 57 57 56 58
16 16 17 18 20 22 21 21 22 20 20 20 21 21 23 24 25 26 27 29 31 31 32 31 31 30 29 32 35 38 39 42 44 46 47 51 57 58 54 54 58 60 61
19 19 19 20 21 24 23 22 22 21 20 21 22 23 23 24 26 28 30 31 32 33 31 28 26 29 33 35 38 41 44 46 49 53 55 55 53 52 55 57 57 56 58
24 25 23 23 24 23 25 24 25 23 22 24 25 25 25 26 28 29 31 33 32 28 25 27 29 31 36 39 42 46 50 54 56 57 56 54 54 55 54 54 53 54 54
28 27 27 26 26 25 26 26 28 28 25 26 29 27 28 29 29 31 32 29 25 24 28 30 33 38 41 45 49 51 54 56 57 54 53 53 54 52 51 52 52 52 52
32 33 30 29 28 29 29 26 29 29 29 27 31 29 28 28 31 32 30 23 25 28 29 35 39 43 47 51 53 55 55 54 52 51 51 51 50 50 50 50 51 51 50
36 36 36 33 31 33 33 26 27 30 30 31 26 31 31 34 32 32 24 28 30 32 36 41 46 49 52 55 56 54 53 52 51 49 49 47 48 49 48 47 47 48 49
40 40 42 38 36 36 36 35 31 30 31 29 30 31 31 33 33 25 26 30 34 37 41 46 48 51 55 54 54 51 51 51 50 48 47 47 47 46 45 46 47 48 49
44 44 44 41 41 40 39 39 34 28 29 31 32 33 35 36 29 26 29 33 39 42 44 46 51 53 53 52 52 53 52 50 48 46 47 47 46 45 45 46 47 47 47
48 49 49 48 46 46 45 43 36 30 31 34 36 33 37 31 27 31 33 37 41 43 46 49 50 53 54 54 53 52 50 48 44 45 46 44 43 44 45 45 45 47 48
Wind_Direction
188 192 203 207 230 236 124 24 350 343 346 357 9 355 344 333 335 317 298 265 259 249 257 267 276 281 279 277 288 290 306 329 320 295 296 295 300 288 246 220 205 207 221
205 215 219 226 228 194 283 320 330 327 340 352 6 356 339 330 318 304 284 300 262 253 252 256 270 285 266 281 273 264 280 331 313 313 315 298 287 273 290 296 221 254 235
212 213 208 189 201 260 277 301 307 303 325 341 340 343 337 324 334 329 343 350 0 300 271 248 220 305 334 337 289 291 297 330 317 323 329 328 299 265 251 255 250 240 243
212 200 207 230 245 263 291 298 294 298 311 320 322 335 332 332 333 340 334 330 328 356 0 340 354 350 355 342 320 264 330 334 325 334 347 339 333 300 273 248 261 260 241
211 227 239 259 282 298 293 298 298 302 298 315 317 329 331 328 328 322 321 321 330 342 349 357 350 344 344 355 346 348 332 331 334 338 342 341 345 337 287 230 259 255 253
257 249 272 285 305 301 293 288 292 290 286 298 325 328 336 330 329 322 324 320 321 323 328 335 333 327 331 338 339 344 336 332 328 331 334 334 340 353 343 279 272 279 278
283 294 281 277 271 269 277 285 291 290 302 321 325 325 333 328 327 327 321 319 316 322 321 315 312 308 312 315 311 312 313 315 317 317 319 321 325 325 323 325 323 321 320
274 262 249 258 263 265 267 280 284 295 307 310 315 318 324 326 328 327 328 324 325 319 319 317 310 306 304 306 307 309 308 307 304 306 307 306 307 307 307 308 307 307 303
262 256 257 265 271 273 273 273 279 297 302 300 302 305 314 315 316 317 317 318 321 319 313 311 308 305 301 304 305 306 305 301 302 303 302 301 303 302 301 300 299 299 299
262 253 260 268 273 275 276 275 276 280 287 293 298 303 304 306 309 310 312 313 315 312 310 313 311 309 307 305 305 304 304 303 303 302 302 303 298 300 298 295 295 296 293
262 258 260 268 275 283 288 297 301 302 302 303 305 303 303 307 306 306 307 307 308 309 307 304 301 301 302 301 299 299 300 301 303 304 303 301 299 298 298 300 296 294 295
281 270 262 271 279 290 310 315 309 306 303 301 305 303 307 309 306 306 307 305 302 300 299 300 300 299 298 298 299 299 298 297 295 295 295 294 293 292 290 289 288 293 295
264 233 244 268 283 298 309 306 304 304 303 305 301 300 303 300 298 301 303 303 301 298 296 296 297 297 297 297 296 297 298 300 300 300 299 297 295 292 292 291 288 291 291
266 277 280 283 284 290 300 302 306 303 301 298 297 295 297 294 296 299 301 302 302 301 301 301 299 297 295 295 296 298 298 296 298 300 299 296 294 293 292 291 292 295 295
272 287 291 291 292 297 306 306 306 298 293 294 297 301 299 298 301 303 303 302 304 307 308 307 303 300 299 301 302 304 304 304 304 302 300 299 297 295 294 293 291 291 291
276 287 298 301 301 299 306 305 304 297 291 298 303 303 303 304 306 307 310 312 315 316 313 310 306 303 300 300 303 305 302 301 300 298 297 297 297 297 296 295 295 295 295
288 285 290 295 299 299 303 310 311 309 303 301 303 303 303 304 307 312 313 310 312 313 312 310 305 301 301 305 306 306 302 300 302 302 301 300 299 301 302 301 300 299 298
291 283 286 296 304 303 302 307 311 313 312 302 298 300 302 303 305 306 306 307 311 313 313 311 308 308 307 306 306 306 306 305 304 303 304 307 307 305 302 301 301 300 300
277 283 287 295 303 308 303 302 305 304 305 302 299 296 296 299 302 306 310 313 316 317 315 314 312 309 309 310 310 308 307 308 309 310 309 306 302 302 304 304 306 307 309
272 280 287 295 299 305 302 304 303 300 303 305 301 297 300 306 309 309 313 315 317 316 312 309 311 313 311 309 311 312 312 310 310 309 306 305 307 307 307 308 308 308 309
264 271 280 290 296 296 300 304 303 300 299 304 303 304 308 310 311 311 314 314 310 307 309 312 312 312 312 313 312 311 311 311 309 308 308 309 309 309 309 309 308 310 310
254 265 270 278 287 291 292 303 305 304 306 310 311 307 305 307 315 316 313 307 308 311 314 313 312 313 313 312 312 312 310 309 308 309 309 310 311 309 308 309 309 309 309
250 256 263 267 278 284 287 289 297 307 310 307 309 309 308 313 317 312 306 311 315 316 315 314 312 313 314 314 313 311 309 309 310 310 311 310 308 308 308 310 310 311 311
252 258 264 272 275 278 286 281 284 296 306 306 306 308 309 312 311 302 308 313 314 314 316 314 315 316 315 315 313 311 312 311 310 309 308 307 307 309 311 311 311 312 312
253 259 262 270 272 276 277 281 279 292 299 304 303 306 311 312 304 305 312 312 312 315 315 316 318 317 317 316 315 315 314 312 311 308 309 309 311 312 313 313 315 315 313
253 257 256 262 263 267 272 271 268 282 293 299 301 307 310 304 301 310 312 312 313 315 318 318 316 317 319 318 317 315 314 314 310 311 312 313 315 316 316 318 318 317 316
Height
5912 5913 5915 5916 5918 5919 5920 5921 5922 5922 5922 5921 5920 5919 5918 5917 5915 5913 5910 5908 5907 5905 5904 5906 5906 5906 5906 5906 5906 5906 5904 5905 5903 5899 5906 5900 5900 5899 5900 5888 5896 5902 5911
5911 5913 5914 5916 5917 5919 5920 5921 5921 5922 5921 5920 5920 5918 5917 5916 5914 5912 5909 5908 5905 5903 5901 5902 5903 5902 5898 5902 5895 5900 5898 5900 5900 5899 5897 5898 5899 5897 5891 5871 5890 5900 5907
5911 5913 5914 5915 5916 5918 5919 5919 5920 5920 5919 5919 5918 5917 5915 5914 5913 5910 5906 5902 5900 5896 5898 5900 5895 5895 5900 5902 5902 5901 5898 5899 5898 5897 5896 5894 5888 5891 5893 5893 5895 5901 5903
5910 5911 5913 5915 5916 5917 5916 5918 5918 5917 5917 5916 5916 5916 5914 5913 5912 5909 5906 5903 5898 5894 5896 5896 5890 5892 5896 5899 5896 5895 5896 5897 5898 5896 5894 5890 5889 5887 5886 5888 5892 5892 5894
5908 5910 5913 5914 5914 5914 5915 5916 5916 5915 5915 5914 5914 5914 5913 5912 5910 5908 5906 5904 5900 5898 5899 5897 5891 5893 5896 5897 5896 5896 5895 5896 5895 5895 5893 5890 5887 5884 5883 5886 5886 5887 5888
5908 5910 5911 5911 5912 5913 5913 5913 5913 5913 5913 5912 5912 5911 5911 5909 5908 5906 5904 5903 5902 5900 5899 5899 5898 5896 5895 5894 5893 5894 5895 5895 5894 5893 5892 5888 5886 5883 5883 5883 5881 5880 5881
5906 5907 5909 5910 5910 5912 5911 5911 5911 5911 5910 5910 5910 5909 5908 5907 5906 5904 5902 5901 5901 5899 5898 5898 5897 5895 5894 5894 5894 5894 5894 5893 5891 5890 5890 5889 5886 5883 5882 5881 5879 5878 5877
5905 5906 5908 5909 5909 5909 5909 5909 5909 5908 5907 5907 5908 5907 5906 5905 5904 5902 5900 5898 5897 5896 5895 5894 5894 5893 5892 5891 5890 5890 5890 5889 5888 5887 5885 5885 5884 5881 5879 5877 5877 5877 5875
5904 5906 5907 5907 5907 5907 5906 5907 5906 5905 5905 5904 5904 5903 5902 5902 5901 5900 5899 5897 5895 5894 5892 5892 5891 5889 5889 5887 5887 5886 5886 5885 5884 5882 5881 5880 5879 5878 5875 5872 5871 5871 5871
5902 5903 5904 5904 5905 5905 5904 5903 5902 5901 5901 5900 5900 5899 5898 5898 5897 5896 5895 5893 5892 5891 5889 5887 5886 5885 5884 5883 5882 5882 5880 5879 5877 5875 5874 5873 5872 5871 5870 5868 5865 5863 5863
5900 5900 5900 5901 5901 5900 5899 5898 5897 5896 5896 5896 5895 5895 5894 5893 5892 5891 5890 5889 5887 5887 5884 5884 5883 5881 5879 5878 5877 5875 5874 5873 5871 5870 5868 5867 5866 5864 5862 5861 5859 5857 5856
5895 5895 5896 5897 5897 5897 5895 5894 5893 5892 5892 5891 5891 5890 5889 5888 5888 5886 5885 5884 5883 5882 5880 5879 5878 5877 5875 5873 5872 5871 5869 5867 5865 5863 5862 5859 5858 5857 5854 5854 5850 5848 5846
5891 5892 5892 5893 5893 5893 5892 5892 5891 5889 5889 5888 5888 5887 5885 5885 5884 5882 5881 5880 5879 5878 5876 5874 5873 5871 5870 5868 5866 5864 5862 5860 5858 5856 5854 5852 5850 5849 5846 5844 5842 5840 5837
5890 5890 5890 5890 5890 5889 5889 5888 5887 5886 5885 5885 5884 5884 5883 5882 5880 5879 5878 5876 5875 5873 5872 5870 5868 5867 5865 5863 5861 5859 5856 5853 5850 5848 5845 5843 5841 5838 5836 5833 5830 5827 5824
5887 5887 5888 5888 5886 5886 5885 5884 5884 5883 5883 5883 5881 5880 5880 5879 5877 5875 5874 5873 5871 5869 5867 5866 5864 5861 5859 5857 5854 5851 5847 5845 5843 5839 5836 5833 5830 5827 5823 5819 5816 5813 5809
5884 5884 5885 5885 5884 5884 5883 5882 5882 5881 5880 5879 5878 5878 5878 5877 5875 5873 5871 5870 5868 5865 5862 5859 5857 5854 5852 5850 5848 5845 5843 5838 5835 5831 5827 5824 5819 5815 5810 5805 5801 5797 5792
5880 5881 5881 5882 5883 5882 5881 5880 5879 5877 5876 5876 5876 5875 5874 5873 5871 5869 5867 5864 5861 5859 5857 5853 5850 5847 5844 5842 5839 5835 5832 5829 5826 5820 5814 5810 5805 5800 5794 5788 5782 5776 5770
5876 5876 5877 5878 5879 5878 5877 5876 5875 5874 5872 5872 5871 5871 5869 5867 5865 5863 5861 5859 5856 5853 5849 5847 5844 5842 5838 5833 5830 5825 5821 5817 5813 5808 5803 5797 5788 5782 5776 5769 5763 5757 5750
5872 5872 5872 5872 5873 5874 5873 5872 5871 5870 5869 5868 5867 5865 5863 5861 5860 5858 5855 5852 5849 5845 5842 5838 5835 5832 5828 5825 5821 5816 5811 5805 5799 5794 5788 5781 5773 5767 5760 5752 5745 5737 5730
5866 5867 5867 5867 5867 5868 5868 5868 5868 5867 5865 5863 5861 5859 5858 5856 5854 5851 5849 5844 5840 5837 5834 5831 5827 5824 5820 5815 5810 5804 5798 5791 5784 5778 5770 5764 5757 5750 5743 5736 5729 5722 5715
5860 5861 5862 5862 5862 5861 5861 5862 5862 5862 5860 5859 5857 5856 5852 5850 5848 5845 5841 5837 5833 5830 5828 5824 5819 5814 5809 5804 5798 5791 5784 5777 5770 5763 5756 5749 5742 5735 5728 5722 5715 5707 5701
5852 5853 5855 5856 5856 5856 5855 5855 5856 5855 5854 5853 5849 5848 5846 5844 5840 5837 5834 5830 5827 5823 5819 5815 5810 5805 5799 5793 5786 5779 5770 5763 5756 5749 5741 5735 5728 5721 5715 5708 5701 5695 5688
5843 5844 5847 5848 5849 5849 5849 5850 5849 5849 5847 5846 5846 5841 5839 5837 5833 5828 5826 5823 5819 5815 5811 5806 5801 5795 5788 5781 5774 5765 5757 5750 5743 5736 5728 5721 5714 5708 5701 5695 5688 5682 5675
5834 5836 5840 5842 5843 5843 5844 5843 5842 5841 5842 5839 5837 5837 5835 5831 5827 5822 5818 5815 5812 5807 5801 5796 5790 5783 5776 5768 5761 5753 5745 5737 5729 5722 5716 5709 5702 5695 5688 5682 5675 5669 5662
5826 5830 5833 5835 5836 5837 5837 5837 5837 5834 5834 5834 5831 5828 5826 5822 5819 5816 5812 5808 5804 5798 5793 5786 5779 5772 5764 5756 5748 5740 5732 5723 5716 5710 5704 5697 5690 5683 5676 5670 5663 5656 5649
5818 5821 5824 5825 5826 5828 5828 5828 5829 5826 5826 5825 5824 5822 5818 5815 5812 5809 5804 5799 5794 5789 5783 5776 5769 5762 5754 5744 5737 5729 5721 5713 5706 5699 5692 5685 5679 5672 5665 5658 5651 5645 5637